Home   Weather   Wertheim   Past weeks

Flag for Germany Past Weather in Wertheim, Baden-Württemberg, Germany — Yesterday and Last 2 Weeks

Now
10 °F

Ice fog.


Feels Like: 4 °F
Forecast: 16 / 24 °F
Wind: 3 mph from South

Location: Niederstetten

Current Time: Jan 23, 2017 at 5:56:23 am

Latest Report: Jan 23, 2017 at 5:20 am


Visibility: 1 mi

Pressure: 30.18 "Hg

Humidity: 85%

Dew Point: 7 °F

Location of WertheimLocation

Past Weather in Wertheim — Graph

°F

Wertheim Temperature Yesterday

Maximum temperature yesterday: 23 °F (at 2:20 pm)
Minimum temperature yesterday: 12 °F (at 11:20 pm)
Average temperature yesterday: 17 °F

High & Low Weather Summary for the Past Weeks

 TemperatureHumidityPressure
High39 °F (Jan 13, 1:20 am)100% (Jan 8, 10:20 am)30.54 "Hg (Jan 8, 10:20 am)
Low12 °F (Jan 19, 3:20 am)36% (Jan 20, 9:20 pm)29.24 "Hg (Jan 13, 1:20 am)
Average26 °F82%30.09 "Hg
* Reported Jan 8 4:20 am — Jan 23 4:20 am, Wertheim, Weather by CustomWeather, © 2017

Note: Actual official high and low records may vary slightly from our data, if they occured in-between our weather recording intervals... More about our weather records

Advertising

Wertheim Weather History for the Previous 24 Hours

Scroll right to see more
 ConditionsComfort  
Time TempWeatherWind HumidityBarometerVisibility
4:20 am
Mon, Jan 23
12 °FIce fog.1 mph92%30.18 "Hg1 mi
3:20 am16 °FIce fog.No wind86%30.18 "Hg2 mi
2:20 am14 °FIce fog.2 mph85%30.18 "Hg2 mi
1:20 am12 °FIce fog.3 mph92%30.21 "Hg2 mi
12:20 am14 °FIce fog.2 mph92%30.21 "Hg2 mi
11:20 pm
Sun, Jan 22
12 °FIce fog.No wind92%30.21 "Hg2 mi
10:20 pm18 °FIce fog.1 mph93%30.21 "Hg2 mi
9:20 pm14 °FIce fog.7 mph85%30.18 "Hg2 mi
8:20 pm14 °FIce fog.6 mph85%30.18 "Hg2 mi
7:20 pm16 °FIce fog.5 mph93%30.21 "Hg3 mi
6:20 pm18 °FIce fog.5 mph86%30.21 "Hg3 mi
5:20 pm19 °FHaze.7 mph79%30.18 "Hg3 mi
4:20 pm21 °FHaze.5 mph74%30.18 "Hg3 mi
3:20 pm23 °FCold.5 mph68%30.18 "Hg4 mi
2:20 pm23 °FHaze.9 mph74%30.21 "Hg3 mi
1:20 pm21 °FHaze.7 mph74%30.21 "Hg3 mi
12:20 pm21 °FHaze.7 mph74%30.24 "Hg3 mi
11:20 am21 °FHaze.8 mph74%30.24 "Hg3 mi
10:20 am18 °FHaze.12 mph79%30.24 "Hg2 mi
9:20 am16 °FIce fog.9 mph86%30.24 "Hg2 mi
8:20 am16 °FIce fog.8 mph86%30.24 "Hg2 mi
7:20 am16 °FIce fog.12 mph86%30.24 "Hg2 mi
6:20 am14 °FIce fog.9 mph85%30.24 "Hg3 mi
5:20 am14 °FIce fog.8 mph85%30.27 "Hg3 mi
Weather by CustomWeather, © 2017

See weather overviewHow to use our weather pages